Flag for Canada Weather past 2 weeks in Kelowna, British Columbia, Canada

Now
45 °F

Light rain. Overcast.


Feels Like: 45 °F
Forecast: 43 / 57 °F
Wind: 2 mph from North

Location: Kelowna Airport


UV Index: 0 (Low)

Visibility: 9 mi


Pressure: 29.81 "Hg

Humidity: 93%

Dew point: 43 °F

Location of KelownaLocation

Historic Weather in Kelowna

°F

Kelowna temperature yesterday

Maximum temperature yesterday: 54 °F (at 4:00 PM)
Minimum temperature yesterday: 34 °F (at 1:00 AM)
Average temperature yesterday: 45 °F

Past Weeks' High & Low Weather Summary

 TemperatureHumidityPressure
High68 °F (Apr 8, 5:00 PM)100% (Apr 8, 5:00 AM)30.42 "Hg (Apr 8, 5:00 AM)
Low27 °F (Apr 13, 6:00 AM)17% (Apr 14, 8:00 PM)29.75 "Hg (Apr 4, 3:00 PM)
Average48 °F55%30.02 "Hg
* Reported Apr 2 7:00 AM — Apr 17 7:00 AM, Kelowna, Weather by CustomWeather, © 2014

Note: Actual official high and low records may vary slightly from our data, if they occured in-between our weather recording intervals... More about our weather records

Advertising

Historic Weather Conditions — Data for Previous 24 hours

 ConditionsComfort  
Time TempWeatherWind HumidityBarometerVisibility
7:00 AM
Apr 17
43 °FLight rain. More clouds than sun.2 mph100%29.81 "Hg9 mi
6:00 AM43 °FLight rain. Mostly cloudy.No wind100%29.82 "Hg9 mi
5:00 AM43 °FLight rain. Overcast.2 mph100%29.83 "Hg9 mi
4:00 AM43 °FLight rain. Overcast.No wind100%29.84 "Hg9 mi
3:00 AM45 °FLight rain. Overcast.No wind87%29.85 "Hg9 mi
2:00 AM43 °FLight rain. Mostly cloudy.2 mph93%29.87 "Hg9 mi
1:00 AM45 °FLight rain. Overcast.3 mph81%29.89 "Hg9 mi
12:00 AM43 °FMostly cloudy.No wind81%29.90 "Hg9 mi
11:00 PM
Apr 16
43 °FPartly cloudy.2 mph81%29.91 "Hg9 mi
10:00 PM45 °FPartly cloudy.No wind81%29.91 "Hg9 mi
9:00 PM46 °FMostly cloudy.No wind76%29.92 "Hg9 mi
8:00 PM48 °FMore clouds than sun.5 mph76%29.93 "Hg9 mi
7:00 PM52 °FMostly cloudy.8 mph62%29.93 "Hg9 mi
6:00 PM52 °FMostly cloudy.6 mph62%29.94 "Hg9 mi
5:00 PM54 °FScattered clouds.8 mph58%29.95 "Hg9 mi
4:00 PM54 °FBroken clouds.5 mph58%29.96 "Hg9 mi
3:00 PM52 °FPartly sunny.3 mph62%29.97 "Hg9 mi
2:00 PM50 °FBroken clouds.2 mph62%29.99 "Hg9 mi
1:00 PM48 °FPartly sunny.5 mph66%30.01 "Hg9 mi
12:00 PM48 °FOvercast.3 mph66%30.02 "Hg9 mi
11:02 AM48 °FLight rain. Mostly cloudy.7 mph62%30.02 "Hg9 mi
10:00 AM46 °FMostly cloudy.2 mph62%30.01 "Hg9 mi
9:00 AM45 °FMostly cloudy.3 mph66%30.01 "Hg9 mi
8:00 AM43 °FMore clouds than sun.7 mph76%30.01 "Hg9 mi
Weather by CustomWeather, © 2014

See weather overview